Thermal, CA

9:27 AM PDT on August 25, 2016 (GMT -0700)
Desert Resorts Regional

Weather History for KTRM - February, 2013

Change the Weather History Date:

Friday, February 15, 2013

  Actual Average Record
Temperature  
Mean Temperature 60 °F 58 °F  
Max Temperature 80 °F 75 °F 91 °F (2016)
Min Temperature 39 °F 41 °F 20 °F (1990)
Degree Days  
Heating Degree Days 5 7  
Month to date heating degree days 124 126  
Since 1 July heating degree days 951 986  
Cooling Degree Days 0 0  
Month to date cooling degree days 0 0  
Year to date cooling degree days 0 2  
Growing Degree Days 12 (Base 50)    
Moisture  
Dew Point 23 °F    
Average Humidity 27    
Maximum Humidity 45    
Minimum Humidity 8    
Precipitation  
Precipitation 0.00 in 0.02 in 1.15 in (1986)
Month to date precipitation T 0.32  
Year to date precipitation 0.37 0.99  
Since 1 July precipitation 2.55  
Snow  
Snow 0.00 in - - ()
Month to date snowfall 0.0  
Year to date snowfall 0.0  
Snow Depth 0.00 in    
Sea Level Pressure  
Sea Level Pressure 30.20 in    
Wind  
Wind Speed 5 mph (NW)    
Max Wind Speed 10 mph    
Max Gust Speed 15 mph    
Visibility 10 miles    
Events      
T = Trace of Precipitation, MM = Missing Value Source: NWS Daily Summary

Daily Weather History Graph

Daily Weather History Graph

Search for Another Location

Airport or City:

Trip Planner

Search our weather history database for the weather conditions in past years. The results will help you decide how hot, cold, wet, or windy it might be!

Date:

Astronomy

Feb. 15, 2013 Rise Set
Actual Time 6:28 AM PST 5:29 PM PST
Civil Twilight 6:03 AM PST 5:54 PM PST
Nautical Twilight 5:33 AM PST 6:24 PM PST
Astronomical Twilight 5:04 AM PST 6:53 PM PST
Moon 9:26 AM PST (2/15) 11:13 PM PST (2/15)
Length of Visible Light 11h 51m
Length of Day
11h 00m
Waxing Crescent, 31% of the Moon is Illuminated
Feb 15
Waxing Crescent
Feb 17
First Quarter
Feb 25
Full
Mar 4
Last Quarter
Mar 11
New

Hourly Weather History & Observations

Time (PST) Temp. Windchill Dew Point Humidity Pressure Visibility Wind Dir Wind Speed Gust Speed Precip Events Conditions
12:52 AM 50.0 °F - 26.1 °F 39% 30.16 in 10.0 mi NNW 4.6 mph - N/A   Clear
1:52 AM 52.0 °F - 26.1 °F 37% 30.15 in 10.0 mi North 8.1 mph - N/A   Clear
2:52 AM 50.0 °F - 27.0 °F 41% 30.16 in 10.0 mi NNW 6.9 mph - N/A   Clear
3:52 AM 48.9 °F - 27.0 °F 43% 30.17 in 10.0 mi Calm Calm - N/A   Clear
4:52 AM 50.0 °F - 27.0 °F 41% 30.18 in 10.0 mi North 6.9 mph - N/A   Clear
5:52 AM 46.0 °F 43.9 °F 27.0 °F 47% 30.19 in 10.0 mi NW 4.6 mph - N/A   Clear
6:52 AM 48.9 °F - 27.0 °F 43% 30.21 in 10.0 mi NNW 8.1 mph - N/A   Clear
7:52 AM 60.1 °F - 28.9 °F 31% 30.23 in 10.0 mi Calm Calm - N/A   Clear
8:52 AM 70.0 °F - 25.0 °F 18% 30.25 in 10.0 mi NW 3.5 mph - N/A   Clear
9:52 AM 73.9 °F - 24.1 °F 16% 30.25 in 10.0 mi Variable 3.5 mph - N/A   Clear
10:52 AM 77.0 °F - 19.0 °F 11% 30.25 in 10.0 mi NW 9.2 mph - N/A   Clear
11:52 AM 78.1 °F - 15.1 °F 9% 30.23 in 10.0 mi NNW 5.8 mph - N/A   Clear
12:52 PM 78.1 °F - 14.0 °F 9% 30.20 in 10.0 mi NW 4.6 mph - N/A   Clear
1:52 PM 79.0 °F - 14.0 °F 9% 30.18 in 10.0 mi Variable 4.6 mph - N/A   Clear
2:52 PM 79.0 °F - 15.1 °F 9% 30.16 in 10.0 mi West 6.9 mph - N/A   Clear
3:52 PM 78.1 °F - 14.0 °F 9% 30.15 in 10.0 mi West 5.8 mph - N/A   Clear
4:52 PM 75.9 °F - 19.9 °F 12% 30.15 in 10.0 mi West 3.5 mph - N/A   Clear
5:52 PM 62.1 °F - 23.0 °F 22% 30.17 in 10.0 mi Calm Calm - N/A   Clear
6:52 PM 55.9 °F - 26.1 °F 32% 30.18 in 10.0 mi SSW 3.5 mph - N/A   Clear
7:52 PM 57.9 °F - 28.9 °F 33% 30.19 in 10.0 mi NW 4.6 mph - N/A   Clear
8:52 PM 57.0 °F - 26.1 °F 30% 30.21 in 10.0 mi NNE 5.8 mph - N/A   Clear
9:52 PM 53.1 °F - 24.1 °F 32% 30.22 in 10.0 mi North 3.5 mph - N/A   Clear
10:52 PM 50.0 °F - 24.1 °F 36% 30.22 in 10.0 mi North 6.9 mph - N/A   Clear
11:52 PM 44.1 °F 40.1 °F 24.1 °F 45% 30.22 in 10.0 mi WNW 6.9 mph - N/A   Clear